Luverne, MN

10:06 PM CDT on September 29, 2016 (GMT -0500)
Luverne

Weather History for KLYV - April, 2014

Change the Weather History Date:

Thursday, April 3, 2014

  Actual Average (KFSD) Record (KFSD)
Temperature  
Mean Temperature 34 °F 41 °F  
Max Temperature 35 °F 52 °F 80 °F (1910)
Min Temperature 32 °F 29 °F 4 °F (1936)
Degree Days  
Heating Degree Days 32 24  
Month to date heating degree days 74  
Since 1 July heating degree days 6919  
Cooling Degree Days 0 0  
Month to date cooling degree days 0  
Year to date cooling degree days 0  
Moisture  
Dew Point 32 °F    
Average Humidity 91    
Maximum Humidity 100    
Minimum Humidity 87    
Precipitation  
Precipitation 0.05 in 0.09 in 2.06 in (1968)
Month to date precipitation 0.26  
Year to date precipitation 3.18  
Snow  
Snow 0.00 in 0.20 in 3.30 in (1974)
Month to date snowfall 0.6  
Since 1 July snowfall 40.5  
Snow Depth -    
Sea Level Pressure  
Sea Level Pressure 29.84 in    
Wind  
Wind Speed 11 mph (NE)    
Max Wind Speed 15 mph    
Max Gust Speed 23 mph    
Visibility 5 miles    
Events Snow    
T = Trace of Precipitation, MM = Missing Value Source: NWS Daily Summary

Daily Weather History Graph

Daily Weather History Graph

Search for Another Location

Airport or City:

Trip Planner

Search our weather history database for the weather conditions in past years. The results will help you decide how hot, cold, wet, or windy it might be!

Date:

Astronomy

Apr. 03, 2014 Rise Set
Actual Time 7:02 AM CDT 7:54 PM CDT
Civil Twilight 6:33 AM CDT 8:23 PM CDT
Nautical Twilight 5:59 AM CDT 8:57 PM CDT
Astronomical Twilight 5:23 AM CDT 9:34 PM CDT
Moon 9:26 AM CDT (4/3) No Moon Set
Length of Visible Light 13h 49m
Length of Day
12h 51m
Waxing Crescent, 17% of the Moon is Illuminated
Apr 3
Waxing Crescent
Apr 7
First Quarter
Apr 15
Full
Apr 22
Last Quarter
Apr 29
New

Hourly Weather History & Observations

Time (CDT) Temp. Windchill Dew Point Humidity Pressure Visibility Wind Dir Wind Speed Gust Speed Precip Events Conditions
12:15 AM 35.6 °F 26.6 °F 32.0 °F 87% 29.91 in 10.0 mi ENE 13.8 mph 23.0 mph N/A   Overcast
12:34 AM 35.6 °F 26.6 °F 32.0 °F 87% 29.92 in 10.0 mi ENE 13.8 mph - N/A   Overcast
12:55 AM 35.6 °F 26.6 °F 32.0 °F 87% 29.92 in 10.0 mi ENE 13.8 mph 18.4 mph N/A   Overcast
1:14 AM 35.6 °F 27.1 °F 32.0 °F 87% 29.90 in 10.0 mi ENE 12.7 mph 20.7 mph N/A   Overcast
1:35 AM 35.6 °F 26.2 °F 32.0 °F 87% 29.88 in 10.0 mi NE 15.0 mph - N/A   Overcast
1:54 AM 35.6 °F 26.6 °F 32.0 °F 87% 29.91 in 10.0 mi ENE 13.8 mph 20.7 mph N/A   Overcast
2:15 AM 35.6 °F 26.6 °F 32.0 °F 87% 29.90 in 10.0 mi ENE 13.8 mph - N/A   Overcast
2:35 AM 35.6 °F 27.5 °F 32.0 °F 87% 29.90 in 10.0 mi ENE 11.5 mph 17.3 mph N/A   Overcast
2:54 AM 35.6 °F 28.0 °F 32.0 °F 87% 29.90 in 10.0 mi ENE 10.4 mph - N/A   Overcast
3:15 AM 35.6 °F 27.1 °F 32.0 °F 87% 29.88 in 10.0 mi ENE 12.7 mph 18.4 mph N/A   Overcast
3:35 AM 35.6 °F 26.6 °F 32.0 °F 87% 29.88 in 10.0 mi ENE 13.8 mph 18.4 mph N/A   Overcast
3:54 AM 35.6 °F 26.6 °F 32.0 °F 87% 29.87 in 10.0 mi ENE 13.8 mph 17.3 mph N/A   Overcast
4:15 AM 35.6 °F 27.1 °F 32.0 °F 87% 29.88 in 10.0 mi ENE 12.7 mph - N/A   Overcast
4:35 AM 33.8 °F 25.3 °F 32.0 °F 93% 29.87 in 10.0 mi ENE 11.5 mph - N/A   Overcast
4:55 AM 33.8 °F 24.8 °F 32.0 °F 93% 29.85 in 10.0 mi ENE 12.7 mph 17.3 mph N/A   Overcast
5:15 AM 33.8 °F 24.3 °F 32.0 °F 93% 29.86 in 10.0 mi ENE 13.8 mph - N/A   Overcast
5:35 AM 35.6 °F 28.0 °F 32.0 °F 87% 29.87 in 10.0 mi ENE 10.4 mph - N/A   Overcast
5:55 AM 33.8 °F 26.4 °F 32.0 °F 93% 29.88 in 7.0 mi ENE 9.2 mph - N/A   Overcast
6:15 AM 33.8 °F 25.3 °F 32.0 °F 93% 29.87 in 4.0 mi ENE 11.5 mph 16.1 mph N/A   Overcast
6:35 AM 33.8 °F 25.8 °F 32.0 °F 93% 29.86 in 3.0 mi ENE 10.4 mph - N/A   Overcast
6:55 AM 33.8 °F 25.3 °F 32.0 °F 93% 29.85 in 3.0 mi ENE 11.5 mph - N/A   Overcast
7:15 AM 33.8 °F 24.8 °F 32.0 °F 93% 29.85 in 4.0 mi ENE 12.7 mph 19.6 mph N/A   Overcast
7:35 AM 33.8 °F 25.3 °F 32.0 °F 93% 29.85 in 4.0 mi ENE 11.5 mph 17.3 mph N/A   Overcast
7:55 AM 33.8 °F 25.3 °F 32.0 °F 93% 29.85 in 4.0 mi ENE 11.5 mph - N/A   Overcast
8:15 AM 33.8 °F 25.8 °F 32.0 °F 93% 29.85 in 4.0 mi ENE 10.4 mph - N/A   Overcast
8:35 AM 33.8 °F 25.8 °F 32.0 °F 93% 29.85 in 3.0 mi ENE 10.4 mph - N/A   Overcast
8:55 AM 33.8 °F 25.8 °F 32.0 °F 93% 29.86 in 5.0 mi ENE 10.4 mph - N/A   Overcast
9:15 AM 33.8 °F 26.4 °F 32.0 °F 93% 29.85 in 5.0 mi ENE 9.2 mph - N/A   Overcast
9:35 AM 33.8 °F 25.8 °F 32.0 °F 93% 29.85 in 7.0 mi ENE 10.4 mph - N/A   Overcast
9:55 AM 35.6 °F 29.2 °F 32.0 °F 87% 29.86 in 7.0 mi ENE 8.1 mph - N/A   Overcast
10:15 AM 35.6 °F 28.6 °F 32.0 °F 87% 29.86 in 5.0 mi ENE 9.2 mph - N/A   Overcast
10:35 AM 35.6 °F 28.0 °F 32.0 °F 87% 29.85 in 4.0 mi ENE 10.4 mph - N/A   Overcast
10:55 AM 33.8 °F 25.8 °F 32.0 °F 93% 29.86 in 2.5 mi ENE 10.4 mph - N/A   Overcast
11:15 AM 35.6 °F 28.0 °F 32.0 °F 87% 29.85 in 3.0 mi ENE 10.4 mph - N/A   Overcast
11:35 AM 35.6 °F 28.6 °F 32.0 °F 87% 29.85 in 4.0 mi ENE 9.2 mph - N/A   Overcast
11:55 AM 35.6 °F 29.2 °F 32.0 °F 87% 29.85 in 5.0 mi NE 8.1 mph - N/A   Overcast
12:15 PM 35.6 °F 29.2 °F 32.0 °F 87% 29.84 in 5.0 mi NE 8.1 mph - N/A   Overcast
12:35 PM 35.6 °F 28.0 °F 32.0 °F 87% 29.83 in 7.0 mi NE 10.4 mph - N/A   Overcast
12:55 PM 35.6 °F 27.1 °F 32.0 °F 87% 29.82 in 7.0 mi NE 12.7 mph - N/A   Overcast
1:15 PM 35.6 °F 27.5 °F 32.0 °F 87% 29.82 in 7.0 mi NE 11.5 mph - N/A   Overcast
1:35 PM 35.6 °F 30.7 °F 32.0 °F 87% 29.84 in 7.0 mi ENE 5.8 mph - N/A   Overcast
1:54 PM 33.8 °F 26.4 °F 32.0 °F 93% 29.83 in 5.0 mi NE 9.2 mph - N/A Snow Light Snow
2:15 PM 33.8 °F 26.4 °F 32.0 °F 93% 29.80 in 2.5 mi NNE 9.2 mph 16.1 mph N/A Snow Light Snow
2:35 PM 33.8 °F 27.7 °F 32.0 °F 93% 29.81 in 2.0 mi NE 6.9 mph - N/A Snow Light Snow
2:55 PM 33.8 °F 27.0 °F 32.0 °F 93% 29.79 in 5.0 mi NNE 8.1 mph - N/A   Overcast
3:15 PM 33.8 °F 26.4 °F 32.0 °F 93% 29.79 in 2.0 mi NNE 9.2 mph - N/A Snow Light Snow
3:35 PM 33.8 °F 28.6 °F 32.0 °F 93% 29.79 in 1.0 mi NNE 5.8 mph - 0.01 in Snow Light Snow
3:55 PM 33.8 °F - 32.0 °F 93% 29.80 in 0.5 mi Calm Calm - 0.02 in Snow Snow
4:15 PM 33.8 °F 27.7 °F 32.0 °F 93% 29.80 in 0.5 mi NNE 6.9 mph - 0.01 in Snow Light Snow
4:35 PM 33.8 °F 28.6 °F 32.0 °F 93% 29.79 in 1.2 mi NNE 5.8 mph - 0.01 in Snow Light Snow
4:55 PM 33.8 °F 27.0 °F 32.0 °F 93% 29.78 in 0.8 mi NNE 8.1 mph - 0.01 in Snow Light Snow
5:14 PM 33.8 °F 27.7 °F 32.0 °F 93% 29.80 in 0.8 mi North 6.9 mph - 0.02 in Snow Light Snow
5:35 PM 33.8 °F 26.4 °F 32.0 °F 93% 29.79 in 1.0 mi NNE 9.2 mph - 0.02 in Snow Light Snow
5:55 PM 33.8 °F 24.8 °F 32.0 °F 93% 29.78 in 1.0 mi NNE 12.7 mph 16.1 mph 0.02 in Snow Light Snow
6:14 PM 33.8 °F 26.4 °F 32.0 °F 93% 29.79 in 1.2 mi NNE 9.2 mph - N/A Snow Light Snow
6:35 PM 33.8 °F 26.4 °F 32.0 °F 93% 29.82 in 1.2 mi North 9.2 mph - N/A Snow Light Snow
6:55 PM 33.8 °F 26.4 °F 32.0 °F 93% 29.82 in 1.0 mi North 9.2 mph - N/A Snow Light Snow
7:15 PM 33.8 °F 26.4 °F 32.0 °F 93% 29.81 in 0.8 mi North 9.2 mph - N/A Snow Light Snow
7:35 PM 33.8 °F 26.4 °F 32.0 °F 93% 29.81 in 1.0 mi NNE 9.2 mph - N/A Snow Light Snow
7:55 PM 33.8 °F 27.0 °F 32.0 °F 93% 29.81 in 1.0 mi North 8.1 mph - N/A Snow Light Snow
8:15 PM 32.0 °F 23.6 °F 32.0 °F 100% 29.81 in 1.5 mi North 10.4 mph - N/A Snow Light Snow
8:35 PM 32.0 °F 24.2 °F 32.0 °F 100% 29.81 in 1.0 mi North 9.2 mph - N/A Snow Snow
8:55 PM 32.0 °F 23.0 °F 32.0 °F 100% 29.81 in 0.8 mi North 11.5 mph 16.1 mph N/A Snow Snow
9:15 PM 32.0 °F 25.6 °F 32.0 °F 100% 29.82 in 1.2 mi NNE 6.9 mph - N/A Snow Light Snow
9:35 PM 32.0 °F 24.2 °F 30.2 °F 93% 29.82 in 1.2 mi North 9.2 mph - N/A Snow Light Snow
10:55 PM 32.0 °F 23.6 °F 30.2 °F 93% 29.82 in 1.8 mi North 10.4 mph - N/A Snow Light Snow
11:15 PM 32.0 °F 23.0 °F 30.2 °F 93% 29.81 in 2.0 mi North 11.5 mph 18.4 mph N/A Snow Light Snow
11:35 PM 32.0 °F 23.0 °F 30.2 °F 93% 29.81 in 2.0 mi North 11.5 mph - N/A Snow Light Snow
11:55 PM 32.0 °F 22.1 °F 28.4 °F 87% 29.81 in 3.0 mi North 13.8 mph 17.3 mph N/A Snow Light Snow